Weather reports worldwide

Advertisment
Bujaraloz, Spain (8165): temperature & dewpoint: 30.06.2020 07:00:00 - 06.07.2020 07:00:00 (CEST)Bujaraloz, Spain (8165): wind speed & gusts: 30.06.2020 07:00:00 - 06.07.2020 07:00:00 (CEST)Bujaraloz, Spain (8165): wind direction: 30.06.2020 07:00:00 - 06.07.2020 07:00:00 (CEST)Bujaraloz, Spain (8165): reduced air pressure: 30.06.2020 07:00:00 - 06.07.2020 07:00:00 (CEST)Bujaraloz, Spain (8165): visibility: 30.06.2020 07:00:00 - 06.07.2020 07:00:00 (CEST)Bujaraloz, Spain (8165): sunshine duration: 30.06.2020 07:00:00 - 06.07.2020 07:00:00 (CEST)Bujaraloz, Spain (8165): precipitation: 30.06.2020 07:00:00 - 06.07.2020 07:00:00 (CEST)
Date & Time tt [°C] td [°C] ff [km/h] ff [kn] fx [km/h] fx [kn] dd ppp [hPa] vv [km] sd [min] rr [mm]
06.07.2020 07:00:00 21,2 13,2 30 16 44 24 W 1016,0 20 5 0,0
06.07.2020 06:00:00 21,9 13,0 32 18 46 25 W 1015,7 20 0 0,0
06.07.2020 05:00:00 22,6 13,1 31 17 41 22 W 1015,5 20 0 0,0
06.07.2020 04:00:00 23,2 13,4 29 16 42 23 W 1015,4 20 0 0,0
06.07.2020 03:00:00 23,9 13,5 31 17 49 26 W 1015,4 20 0 0,0
06.07.2020 02:00:00 24,9 14,3 31 17 41 22 W 1015,3 20 0 -
06.07.2020 01:00:00 26,0 15,3 24 13 31 17 WNW 1015,0 20 0 0,0
06.07.2020 00:00:00 27,2 13,9 3 2 9 5 NE 1014,4 20 0 0,0
05.07.2020 23:00:00 28,7 11,7 8 5 14 8 E 1014,1 20 0 0,0
05.07.2020 22:00:00 31,8 9,3 7 4 8 5 SSE 1013,2 20 28 0,0
05.07.2020 21:00:00 33,0 8,4 6 4 9 5 E 1012,9 20 60 0,0
05.07.2020 20:00:00 33,7 9,0 6 4 12 7 E 1012,9 20 60 -
05.07.2020 19:00:00 33,9 7,8 9 5 19 10 ENE 1013,4 20 60 0,0
05.07.2020 18:00:00 35,3 8,1 7 4 23 13 W 1013,9 20 60 0,0
05.07.2020 17:00:00 33,6 8,3 9 5 20 11 N 1014,7 20 60 0,0
05.07.2020 16:00:00 32,8 8,3 10 6 21 11 SW 1015,5 20 60 0,0
05.07.2020 15:00:00 32,2 9,0 6 3 22 12 WNW 1016,4 20 60 0,0
05.07.2020 14:00:00 30,1 9,0 14 8 31 17 NNW 1017,3 20 60 -
05.07.2020 13:00:00 28,5 8,8 22 12 39 21 NW 1018,2 20 60 0,0
05.07.2020 12:00:00 26,8 10,5 21 11 33 18 WNW 1018,6 20 60 0,0
05.07.2020 11:00:00 25,3 9,2 26 14 34 18 NW 1019,1 20 60 0,0
05.07.2020 10:00:00 22,8 8,1 16 9 27 15 WNW 1019,6 20 60 0,0
05.07.2020 09:00:00 21,1 9,3 11 6 19 10 W 1019,7 20 60 0,0
05.07.2020 08:00:00 19,6 8,5 13 7 19 10 W 1019,4 20 57 -
05.07.2020 07:00:00 19,7 8,7 12 6 19 11 WSW 1019,1 20 10 0,0
05.07.2020 06:00:00 19,5 9,0 16 8 21 11 W 1019,1 20 0 0,0
05.07.2020 05:00:00 19,7 8,1 17 9 28 15 W 1019,0 20 0 0,0
05.07.2020 04:00:00 20,9 6,1 26 14 33 18 W 1018,8 20 0 0,0
05.07.2020 03:00:00 21,4 6,1 30 16 37 20 W 1019,1 20 0 0,0
05.07.2020 02:00:00 22,6 8,0 29 16 40 21 WNW 1019,3 20 0 -
05.07.2020 01:00:00 23,1 8,0 26 14 31 17 W 1018,9 20 0 0,0
05.07.2020 00:00:00 24,8 5,6 19 11 26 14 W 1018,6 20 0 0,0
04.07.2020 23:00:00 26,0 6,1 19 11 21 12 W 1018,2 20 0 0,0
04.07.2020 22:00:00 28,4 5,9 16 9 21 11 WNW 1017,1 20 32 0,0
04.07.2020 21:00:00 30,5 5,0 12 7 20 11 W 1016,5 20 60 0,0
04.07.2020 20:00:00 31,4 5,0 16 9 26 14 WNW 1016,1 20 60 -
04.07.2020 19:00:00 31,8 2,9 16 9 29 16 WNW 1016,2 20 60 0,0
04.07.2020 18:00:00 31,6 -0,3 17 9 32 17 W 1016,8 20 60 0,0
04.07.2020 17:00:00 30,6 1,1 22 12 36 20 WNW 1017,5 20 60 0,0
04.07.2020 16:00:00 29,0 3,8 22 12 38 20 NNW 1018,2 20 60 0,0
04.07.2020 15:00:00 27,8 6,5 16 9 31 17 WNW 1019,1 20 60 0,0
04.07.2020 14:00:00 25,5 7,1 18 10 30 16 NW 1020,0 20 60 -
04.07.2020 13:00:00 24,1 7,7 14 8 30 16 NW 1020,6 20 60 0,0
04.07.2020 12:00:00 22,6 8,0 20 11 35 19 NW 1020,9 20 60 0,0
04.07.2020 11:00:00 20,9 8,1 21 11 34 18 WNW 1021,1 20 60 0,0
04.07.2020 10:00:00 19,4 8,4 22 12 39 21 NW 1021,5 20 60 0,0
04.07.2020 09:00:00 18,0 7,7 27 15 41 22 WNW 1021,4 20 60 0,0
04.07.2020 08:00:00 16,5 8,0 14 7 24 13 WSW 1021,4 20 57 -
04.07.2020 07:00:00 15,5 7,3 19 10 37 20 W 1021,0 20 14 0,0
04.07.2020 06:00:00 16,1 7,6 21 11 36 19 W 1020,5 20 0 0,0
04.07.2020 05:00:00 16,8 8,0 22 12 36 19 W 1020,5 20 0 0,0
04.07.2020 04:00:00 17,6 8,1 26 14 36 19 W 1020,4 20 0 0,0
04.07.2020 03:00:00 18,2 8,1 19 11 43 23 W 1020,2 20 0 0,0
04.07.2020 02:00:00 19,6 8,0 32 17 42 23 W 1019,7 20 0 -
04.07.2020 01:00:00 20,2 8,5 26 14 36 20 W 1019,5 20 0 0,0
04.07.2020 00:00:00 21,2 8,8 23 12 46 25 W 1018,9 20 0 0,0
03.07.2020 23:00:00 22,1 8,9 27 14 38 21 W 1018,0 20 0 0,0
03.07.2020 22:00:00 23,5 9,2 23 13 38 21 W 1016,8 20 29 0,0
03.07.2020 21:00:00 25,8 7,8 26 14 38 20 WNW 1016,5 20 60 0,0
03.07.2020 20:00:00 26,9 7,4 24 13 43 23 NW 1016,0 20 60 -
03.07.2020 19:00:00 27,1 7,0 33 18 45 24 WNW 1015,5 20 60 0,0
03.07.2020 18:00:00 27,1 7,0 34 18 46 25 NW 1015,8 20 60 0,0
03.07.2020 17:00:00 26,6 8,1 31 17 46 25 WNW 1016,2 20 60 0,0
03.07.2020 16:00:00 26,6 9,4 29 16 45 25 WNW 1016,8 20 60 0,0
03.07.2020 15:00:00 26,6 9,0 29 16 45 24 WNW 1017,3 20 60 0,0
03.07.2020 14:00:00 24,9 9,6 32 17 46 25 NW 1017,7 20 60 -
03.07.2020 13:00:00 23,5 9,4 34 18 50 27 WNW 1018,4 20 60 0,0
03.07.2020 12:00:00 22,2 9,3 32 18 47 25 WNW 1018,6 20 60 0,0
03.07.2020 11:00:00 20,8 10,5 22 12 41 22 NW 1018,9 20 58 0,0
03.07.2020 10:00:00 19,2 10,2 31 17 54 29 W 1018,9 20 58 0,0
03.07.2020 09:00:00 18,2 10,3 33 18 49 26 WNW 1018,8 20 4 0,0
03.07.2020 08:00:00 17,9 10,5 34 19 45 24 W 1018,3 20 7 -
03.07.2020 07:00:00 17,9 10,8 29 15 45 24 WNW 1018,2 20 0 0,0
03.07.2020 06:00:00 18,2 10,8 29 16 45 24 WNW 1017,9 20 0 0,0
03.07.2020 05:00:00 18,3 10,9 32 17 43 23 W 1017,5 20 0 0,0
03.07.2020 04:00:00 18,2 10,8 31 17 48 26 W 1017,6 20 0 0,0
03.07.2020 03:00:00 18,5 11,3 29 16 54 29 W 1017,1 20 0 0,0
03.07.2020 02:00:00 18,8 11,3 41 22 59 32 W 1016,6 20 0 -
03.07.2020 01:00:00 19,3 11,3 43 23 61 33 W 1015,9 20 0 0,0
03.07.2020 00:00:00 20,6 12,3 36 19 57 31 W 1015,1 20 0 0,0
02.07.2020 23:00:00 23,1 12,4 36 20 55 30 W 1014,0 20 0 0,0
02.07.2020 22:00:00 25,0 13,3 35 19 58 31 WNW 1012,4 20 18 0,0
02.07.2020 21:00:00 26,8 13,9 45 24 59 32 NW 1010,9 20 59 0,0
02.07.2020 20:00:00 30,4 14,0 36 20 48 26 NW 1009,8 20 60 -
02.07.2020 19:00:00 32,6 14,7 8 5 27 14 W 1009,2 20 60 0,0
02.07.2020 18:00:00 31,7 14,8 9 5 19 11 WSW 1009,3 20 60 0,0
02.07.2020 17:00:00 31,7 15,6 5 3 22 12 SE 1009,7 20 60 0,0
02.07.2020 16:00:00 31,4 15,3 9 5 23 12 SW 1010,3 20 60 0,0
02.07.2020 15:00:00 30,0 15,7 7 4 19 10 NNE 1011,2 20 60 0,0
02.07.2020 14:00:00 28,5 15,4 7 4 24 13 N 1012,1 20 60 -
02.07.2020 13:00:00 28,5 15,1 8 5 25 14 NNW 1012,5 20 60 0,0
02.07.2020 12:00:00 25,9 15,0 9 5 24 13 NNW 1013,0 20 60 0,0
02.07.2020 11:00:00 25,1 14,8 11 6 22 12 NW 1013,4 20 60 0,0
02.07.2020 10:00:00 23,0 14,5 13 7 24 13 WNW 1013,6 20 59 0,0
02.07.2020 09:00:00 22,0 14,6 18 10 26 14 WNW 1013,5 20 54 0,0
02.07.2020 08:00:00 20,9 14,8 13 7 22 12 W 1013,0 20 52 -
02.07.2020 07:00:00 19,9 14,9 14 8 25 13 W 1012,8 20 0 0,0
02.07.2020 06:00:00 20,5 14,8 21 11 31 17 WNW 1012,5 20 0 0,0
02.07.2020 05:00:00 20,7 15,3 21 11 25 13 W 1012,1 20 0 0,0
02.07.2020 04:00:00 21,7 15,3 18 10 32 18 WNW 1011,8 20 0 0,0
02.07.2020 03:00:00 22,5 15,3 25 14 44 24 WNW 1011,4 20 0 0,0
02.07.2020 02:00:00 23,6 15,6 36 19 46 25 W 1011,1 20 0 -
02.07.2020 01:00:00 24,6 16,3 32 18 40 22 W 1010,5 20 0 0,0
02.07.2020 00:00:00 26,4 17,5 27 15 41 22 WNW 1009,9 20 0 0,0
01.07.2020 23:00:00 28,7 19,6 14 7 29 16 NNE 1008,8 20 0 0,0
01.07.2020 22:00:00 29,4 18,2 16 8 35 19 SSE 1007,5 20 6 0,0
01.07.2020 21:00:00 34,0 17,2 5 3 19 10 E 1006,1 20 40 0,0
01.07.2020 20:00:00 35,4 14,1 7 4 17 9 E 1005,5 20 59 -
01.07.2020 19:00:00 35,4 15,7 8 5 15 8 ENE 1005,3 20 60 0,0
01.07.2020 18:00:00 35,6 16,4 9 5 18 10 NE 1005,8 20 60 0,0
01.07.2020 17:00:00 34,7 16,6 10 6 20 11 ENE 1006,5 20 60 0,0
01.07.2020 16:00:00 34,2 17,0 6 3 15 8 E 1006,8 20 60 0,0
01.07.2020 15:00:00 32,6 16,8 7 4 16 8 NE 1007,3 20 56 0,0
01.07.2020 14:00:00 31,1 17,8 10 6 18 10 NE 1007,8 20 60 -
01.07.2020 13:00:00 30,1 19,1 6 4 14 8 NE 1008,5 19 60 0,0
01.07.2020 12:00:00 28,5 19,4 6 3 14 8 NNE 1009,0 20 60 0,0
01.07.2020 11:00:00 26,5 18,6 6 3 11 6 WSW 1009,1 20 60 0,0
01.07.2020 10:00:00 24,7 18,8 3 2 11 6 SW 1009,5 20 60 0,0
01.07.2020 09:00:00 22,4 19,3 5 3 16 9 WSW 1009,5 20 60 0,0
01.07.2020 08:00:00 20,9 19,2 5 3 8 4 NW 1009,2 20 47 -
01.07.2020 07:00:00 20,8 18,8 2 1 13 7 SSE 1008,9 20 0 0,0
01.07.2020 06:00:00 21,6 19,0 8 4 19 10 ESE 1008,4 20 0 0,0
01.07.2020 05:00:00 22,4 18,8 14 8 19 10 ENE 1008,3 20 0 0,0
01.07.2020 04:00:00 22,6 19,0 12 7 14 8 ENE 1008,5 20 0 0,0
01.07.2020 03:00:00 22,8 18,3 11 6 19 10 ESE 1008,6 20 0 0,0
01.07.2020 02:00:00 23,6 18,5 10 5 27 15 ESE 1009,4 20 0 -
01.07.2020 01:00:00 23,7 18,8 16 9 32 18 E 1009,4 20 0 0,0
01.07.2020 00:00:00 24,3 18,5 11 6 31 17 ENE 1009,5 20 0 0,0
30.06.2020 23:00:00 24,9 18,3 20 11 35 19 E 1009,2 20 0 0,0
30.06.2020 22:00:00 25,7 18,2 19 11 31 17 ESE 1007,2 20 0 0,0
30.06.2020 21:00:00 26,9 18,8 24 13 35 19 E 1007,6 20 2 0,0
30.06.2020 20:00:00 27,0 19,8 19 11 40 21 E 1007,3 20 3 -
30.06.2020 19:00:00 29,4 19,1 23 12 42 23 E 1007,1 20 7 0,0
30.06.2020 18:00:00 31,4 19,4 26 14 38 21 E 1007,5 20 51 0,0
30.06.2020 17:00:00 32,0 19,6 25 13 41 22 E 1008,0 20 60 0,0
30.06.2020 16:00:00 32,4 19,3 19 10 29 15 ENE 1008,7 20 60 0,0
30.06.2020 15:00:00 30,8 17,9 14 8 21 11 NE 1009,7 20 60 0,0
30.06.2020 14:00:00 29,0 16,2 9 5 19 11 ENE 1011,0 20 60 -
30.06.2020 13:00:00 27,7 15,7 7 4 16 9 NNE 1011,8 20 60 0,0
30.06.2020 12:00:00 26,1 13,6 4 2 18 10 W 1012,6 20 59 0,0
30.06.2020 11:00:00 24,6 13,8 4 2 16 9 W 1013,3 20 60 0,0
30.06.2020 10:00:00 22,2 13,1 10 6 24 13 W 1013,9 20 58 0,0
30.06.2020 09:00:00 21,0 13,2 15 8 23 12 W 1013,9 20 55 0,0
30.06.2020 08:00:00 19,4 13,8 17 9 23 12 W 1013,8 20 40 -
30.06.2020 07:00:00 18,9 13,6 19 11 23 12 W 1013,6 20 0 0,0

tt = temperature
td = dewpoint
ff = wind speed
fx = gusts
dd = wind direction
ppp = reduced air pressure
vv = visibility
sd = sunshine duration
rr = precipitation

Next stations